Tracking 19484 objects as of 19-Jan-2019
HD Live streaming from Space Station
objects crossing your sky now

COSMOS 1891

Track COSMOS 1891 now!
10-day predictions
COSMOS 1891 is classified as:


NORAD ID: 18402
Int'l Code: 1987-087A
Perigee: 955.6 km
Apogee: 1,031.5 km
Inclination: 82.9 °
Period: 104.8 minutes
Semi major axis: 7364 km
RCS: 2.232 m2 (large)
Launch date: October 14, 1987
Source: Commonwealth of Independent States (former USSR) (CIS)
Launch site: PLESETSK MISSILE AND SPACE COMPLEX (PKMTR)
aabbcc
Your satellite tracking list
Your tracking list is empty




NASA's NSSDC Master Catalog

Two Line Element Set (TLE):
1 18402U 87087A   19018.17420424  .00000045  00000-0  30842-4 0  9998
2 18402  82.9208  61.8975 0051553 129.9952 230.5746 13.73672867567159
Source of the keplerian elements: AFSPC